|
NORAD ID: 38311 Int'l Code: 2011-079E
Perigee: 686.3 km
Apogee: 873.4 km
Inclination: 98.5 °
Period: 100.3 minutes
Semi major axis: 7150 km
Launch date: December 22, 2011
Source: People's Republic of China (PRC)
Note: This is SATELLITE DEBRIS
Two Line Element Set (TLE):
1 38311U 11079E 13142.18137738 .00001546 00000-0 49999-3 0 1444
2 38311 098.4839 217.8057 0130799 156.0274 263.3556 14.35702921447215
Source:
NASA's NSSDC Master Catalog entry for CZ-4B DEB
|